Terug naar catalogus

ARIANE 5 DEB

SYLDA

ActiefHEO
NORAD 43177·DEBRIS·🇫🇷 France

Gelanceerd Jan 25, 2018 vanaf Guiana Space Centre

Loading…

Volgende Passages (komende 24 uur)

TLE

VersSource: Space-Track

Epoch: Sep 14, 2026, 20:05 UTC

1 43177U 18012D   26257.83722488  .00015457  00000-0  50319-2 0  9990
2 43177  20.8823 141.6875 6744689 164.1995 237.0656  2.96769748 69000

Volg ARIANE 5 DEB in realtime met AllMySat

Download on the App Store